Change the Weather History Date:

Wednesday, March 21, 2012

  Actual Average Record
Temperature  
Mean Temperature 60 °F -  
Max Temperature 66 °F 49 °F 73 °F (2011)
Min Temperature 55 °F 32 °F 23 °F (2006)
Degree Days  
Heating Degree Days 6    
Growing Degree Days 10 (Base 50)    
Moisture  
Dew Point 56 °F    
Average Humidity 85    
Maximum Humidity 100    
Minimum Humidity 73    
Precipitation  
Precipitation 0.00 in - - ()
Sea Level Pressure  
Sea Level Pressure 30.30 in    
Wind  
Wind Speed 5 mph (East)    
Max Wind Speed 10 mph    
Max Gust Speed -    
Visibility 7 miles    
Events      
Averages and records for this station are not official NWS values.
T = Trace of Precipitation, MM = Missing Value Source: NWS Daily Summary

Daily Weather History Graph

Daily Weather History Graph

Search for Another Location

Airport or City:

Trip Planner

Search our weather history database for the weather conditions in past years. The results will help you decide how hot, cold, wet, or windy it might be!

Date:

Astronomy

Mar. 21, 2012 Rise Set
Actual Time 7:11 AM EDT 7:24 PM EDT
Civil Twilight 6:45 AM EDT 7:51 PM EDT
Nautical Twilight 6:13 AM EDT 8:22 PM EDT
Astronomical Twilight 5:41 AM EDT 8:55 PM EDT
Moon 6:21 AM EDT (3/21) 6:49 PM EDT (3/21)
Length of Visible Light 13h 06m
Length of Day
12h 12m
Waning Crescent, 1% of the Moon is Illuminated
Mar 21
Waning Crescent
Mar 22
New
Mar 30
First Quarter
Apr 6
Full
Apr 13
Last Quarter

Hourly Weather History & Observations

Time (EDT) Temp. Dew Point Humidity Pressure Visibility Wind Dir Wind Speed Gust Speed Precip Events Conditions
12:53 AM 59.0 °F 55.0 °F 87% 30.29 in 10.0 mi East 3.5 mph - N/A   Clear
1:53 AM 60.1 °F 55.0 °F 83% 30.30 in 10.0 mi Calm Calm - N/A   Clear
3:53 AM 57.9 °F 54.0 °F 87% 30.29 in 7.0 mi Calm Calm - N/A   Clear
4:53 AM 57.9 °F 55.0 °F 90% 30.29 in 6.0 mi East 5.8 mph - N/A   Partly Cloudy
5:53 AM 55.9 °F 54.0 °F 93% 30.30 in 4.0 mi ENE 6.9 mph - N/A   Clear
6:48 AM 55.4 °F 53.6 °F 94% 30.28 in 2.5 mi ENE 4.6 mph - N/A   Partly Cloudy
6:53 AM 55.0 °F 54.0 °F 96% 30.31 in 2.5 mi East 3.5 mph - N/A   Scattered Clouds
6:59 AM 55.4 °F 55.4 °F 100% 30.28 in 1.8 mi East 5.8 mph - N/A   Mostly Cloudy
7:13 AM 55.4 °F 55.4 °F 100% 30.29 in 0.8 mi ENE 4.6 mph - N/A   Mist
7:35 AM 57.2 °F 55.4 °F 94% 30.29 in 1.5 mi East 5.8 mph - N/A   Overcast
7:43 AM 57.2 °F 55.4 °F 94% 30.29 in 2.0 mi ENE 6.9 mph - N/A   Overcast
7:53 AM 57.0 °F 55.9 °F 96% 30.32 in 2.5 mi East 5.8 mph - N/A   Overcast
8:02 AM 57.2 °F 55.4 °F 94% 30.29 in 3.0 mi ENE 4.6 mph - N/A   Overcast
8:17 AM 57.2 °F 55.4 °F 94% 30.29 in 2.0 mi ENE 6.9 mph - N/A   Mostly Cloudy
8:21 AM 57.2 °F 55.4 °F 94% 30.29 in 2.0 mi ENE 6.9 mph - N/A   Scattered Clouds
8:29 AM 57.2 °F 55.4 °F 94% 30.29 in 2.0 mi ENE 9.2 mph - N/A   Mostly Cloudy
8:36 AM 59.0 °F 57.2 °F 94% 30.29 in 2.0 mi ENE 9.2 mph - N/A   Mostly Cloudy
8:53 AM 60.1 °F 57.0 °F 90% 30.32 in 2.0 mi ENE 10.4 mph - N/A   Mostly Cloudy
8:57 AM 60.8 °F 55.4 °F 82% 30.30 in 9.0 mi East 10.4 mph - N/A   Mostly Cloudy
9:53 AM 60.1 °F 55.9 °F 86% 30.35 in 10.0 mi East 6.9 mph - N/A   Overcast
10:16 AM 60.8 °F 55.4 °F 82% 30.33 in 10.0 mi ENE 4.6 mph - N/A   Overcast
10:53 AM 61.0 °F 55.9 °F 83% 30.36 in 10.0 mi East 5.8 mph - N/A   Overcast
11:53 AM 62.1 °F 57.0 °F 84% 30.37 in 10.0 mi Calm Calm - N/A   Overcast
12:31 PM 62.6 °F 55.4 °F 77% 30.33 in 10.0 mi East 5.8 mph - N/A   Overcast
12:53 PM 62.1 °F 55.0 °F 78% 30.36 in 10.0 mi East 3.5 mph - N/A   Overcast
1:53 PM 63.0 °F 55.9 °F 78% 30.35 in 10.0 mi East 3.5 mph - N/A   Overcast
2:53 PM 64.0 °F 55.9 °F 75% 30.32 in 10.0 mi East 3.5 mph - N/A   Overcast
3:53 PM 64.0 °F 55.9 °F 75% 30.30 in 10.0 mi East 4.6 mph - N/A   Overcast
4:53 PM 64.9 °F 55.9 °F 73% 30.28 in 10.0 mi East 5.8 mph - N/A   Overcast
5:23 PM 64.4 °F 55.4 °F 73% 30.25 in 10.0 mi ENE 6.9 mph - N/A   Mostly Cloudy
5:48 PM 64.4 °F 55.4 °F 73% 30.24 in 10.0 mi East 6.9 mph - N/A   Overcast
5:53 PM 64.9 °F 55.9 °F 73% 30.26 in 10.0 mi East 6.9 mph - N/A   Overcast
6:53 PM 64.9 °F 55.9 °F 73% 30.28 in 10.0 mi East 4.6 mph - N/A   Overcast
7:53 PM 64.0 °F 55.9 °F 75% 30.28 in 10.0 mi ESE 4.6 mph - N/A   Overcast
8:50 PM 64.4 °F 57.2 °F 77% 30.28 in 10.0 mi SSE 3.5 mph - N/A   Overcast
8:53 PM 63.0 °F 57.0 °F 81% 30.30 in 10.0 mi SSE 3.5 mph - N/A   Overcast
9:53 PM 62.1 °F 55.9 °F 80% 30.31 in 9.0 mi Calm Calm - N/A   Partly Cloudy
10:53 PM 62.1 °F 57.0 °F 84% 30.32 in 8.0 mi Calm Calm - N/A   Overcast
11:26 PM 62.6 °F 57.2 °F 82% 30.28 in 8.0 mi ESE 3.5 mph - N/A   Overcast
11:53 PM 62.1 °F 57.0 °F 84% 30.31 in 7.0 mi ESE 3.5 mph - N/A   Overcast